Location: Newark
(34.6283°N, 36.0776°E)
Time: 10:31:28
(UTC+00:00)

Tiros 1 - All Passes

Search period start: 19 September 2019 00:00
Search period end: 29 September 2019 00:00
Orbit: 630 x 664 km, 48.4° (Epoch: 18 September)

Date Brightness Start Highest point End Pass type
(mag) Time Alt. Az. Time Alt. Az. Time Alt. Az.
19 Sep - 08:45:29 10° SSE 08:48:19 16° SE 08:51:09 10° E daylight
19 Sep - 10:25:18 10° SW 10:30:03 81° NW 10:34:46 10° NE daylight
19 Sep - 12:09:05 10° WNW 12:12:47 22° NNW 12:16:28 10° NNE daylight
19 Sep - 13:53:43 10° NNW 13:56:21 15° N 13:58:58 10° NE daylight
19 Sep - 15:36:01 10° NNW 15:39:51 25° NNE 15:43:39 10° ENE daylight
19 Sep - 17:17:48 10° NW 17:22:27 81° SW 17:27:03 10° SE visible
19 Sep - 19:02:34 10° WSW 19:04:01 11° SW 19:05:28 10° SW visible
20 Sep - 09:09:39 10° SSW 09:14:05 39° SE 09:18:28 10° ENE daylight
20 Sep - 10:51:49 10° W 10:56:15 39° NNW 11:00:41 10° NE daylight
20 Sep - 12:36:29 10° NW 12:39:28 16° N 12:42:26 10° NNE daylight
20 Sep - 14:20:06 10° NNW 14:23:08 17° NNE 14:26:09 10° NE daylight
20 Sep - 16:01:49 10° NW 16:06:16 43° NNE 16:10:40 10° ESE visible
20 Sep - 17:44:14 10° WNW 17:48:21 32° SW 17:52:28 10° SSE visible
21 Sep - 07:55:49 10° SSE 07:58:20 14° SE 08:00:52 10° E daylight
21 Sep - 09:35:16 10° SW 09:40:02 88° NW 09:44:47 10° NE daylight
21 Sep - 11:18:55 10° WNW 11:22:43 23° NNW 11:26:30 10° NNE daylight
21 Sep - 13:03:37 10° NW 13:06:16 15° N 13:08:53 10° NE daylight
21 Sep - 14:46:01 10° NNW 14:49:47 24° NNE 14:53:32 10° ENE daylight
21 Sep - 16:27:47 10° NW 16:32:27 88° SSW 16:37:04 10° SE visible
21 Sep - 18:12:03 10° WSW 18:14:03 13° SW 18:16:04 10° SSW visible
22 Sep - 08:19:44 10° SSW 08:24:04 35° SE 08:28:24 10° ENE daylight
22 Sep - 10:01:42 10° WSW 10:06:13 42° NNW 10:10:43 10° NE daylight
22 Sep - 11:46:19 10° NW 11:49:23 17° N 11:52:26 10° NNE daylight
22 Sep - 13:30:04 10° NNW 13:33:03 16° N 13:36:02 10° NE daylight
22 Sep - 15:11:50 10° NW 15:16:14 40° NNE 15:20:36 10° E daylight
22 Sep - 16:54:09 10° WNW 16:58:23 36° SW 17:02:35 10° SSE visible
23 Sep - 07:06:14 10° SSE 07:08:22 13° SE 07:10:31 10° E daylight
23 Sep - 08:45:14 10° SW 08:50:01 85° SE 08:54:46 10° NE daylight
23 Sep - 10:28:46 10° WNW 10:32:39 24° NNW 10:36:32 10° NNE daylight
23 Sep - 12:13:30 10° NW 12:16:10 15° N 12:18:50 10° NNE daylight
23 Sep - 13:56:01 10° NNW 13:59:44 23° NNE 14:03:25 10° ENE daylight
23 Sep - 15:37:46 10° NW 15:42:27 85° NE 15:47:04 10° SE daylight
23 Sep - 17:21:40 10° W 17:24:07 14° SW 17:26:32 10° SSW visible
24 Sep - 07:29:50 10° SSW 07:34:05 32° SE 07:38:19 10° ENE daylight
24 Sep - 09:11:37 10° WSW 09:16:11 45° NNW 09:20:44 10° NE daylight
24 Sep - 10:56:09 10° NW 10:59:18 17° NNW 11:02:26 10° NNE daylight
24 Sep - 12:40:02 10° NNW 12:42:58 16° N 12:45:54 10° NE daylight
24 Sep - 14:21:50 10° NW 14:26:12 38° NNE 14:30:31 10° E daylight
24 Sep - 16:04:04 10° WNW 16:08:24 39° SW 16:12:42 10° SSE visible
25 Sep - 06:16:46 10° SSE 06:18:24 12° SE 06:20:01 10° ESE daylight
25 Sep - 07:55:13 10° SW 08:00:00 79° SE 08:04:46 10° NE daylight
25 Sep - 09:38:37 10° W 09:42:35 26° NNW 09:46:33 10° NE daylight
25 Sep - 11:23:23 10° NW 11:26:05 15° N 11:28:46 10° NNE daylight
25 Sep - 13:06:01 10° NNW 13:09:40 22° NNE 13:13:17 10° ENE daylight
25 Sep - 14:47:45 10° NW 14:52:26 79° NE 14:57:03 10° SE daylight
25 Sep - 16:31:22 10° W 16:34:09 16° SW 16:36:54 10° SSW visible
26 Sep - 06:39:57 10° SSW 06:44:05 30° SE 06:48:14 10° ENE daylight
26 Sep - 08:21:31 10° WSW 08:26:09 48° NNW 08:30:45 10° NE daylight
26 Sep - 10:05:58 10° WNW 10:09:13 18° NNW 10:12:27 10° NNE daylight
26 Sep - 11:49:58 10° NNW 11:52:53 16° N 11:55:47 10° NE daylight
26 Sep - 13:31:50 10° NW 13:36:10 35° NNE 13:40:26 10° E daylight
26 Sep - 15:14:00 10° WNW 15:18:25 43° SW 15:22:47 10° SSE daylight
27 Sep - 05:27:40 10° SE 05:28:25 10° SE 05:29:11 10° ESE daylight
27 Sep - 07:05:13 10° SW 07:09:59 72° SE 07:14:44 10° NE daylight
27 Sep - 08:48:27 10° W 08:52:32 27° NNW 08:56:35 10° NE daylight
27 Sep - 10:33:15 10° NW 10:36:00 15° N 10:38:43 10° NNE daylight
27 Sep - 12:16:01 10° NNW 12:19:36 21° NNE 12:23:09 10° ENE daylight
27 Sep - 13:57:44 10° NW 14:02:25 72° NE 14:07:03 10° ESE daylight
27 Sep - 15:41:07 10° W 15:44:11 17° SW 15:47:13 10° S daylight
28 Sep - 05:50:04 10° S 05:54:06 27° SE 05:58:07 10° ENE daylight
28 Sep - 07:31:26 10° WSW 07:36:06 52° NNW 07:40:46 10° NE daylight
28 Sep - 09:15:48 10° WNW 09:19:08 18° NNW 09:22:27 10° NNE daylight
28 Sep - 10:59:55 10° NNW 11:02:48 16° N 11:05:40 10° NE daylight
28 Sep - 12:41:50 10° NW 12:46:07 33° NNE 12:50:21 10° E daylight
28 Sep - 14:23:56 10° WNW 14:28:26 48° SW 14:32:52 10° SSE daylight
